Wetbulb
37.89 37.92 38.19 38.37 38.48 38.81 39.24 39.74 39.21 39.35 39.84 40.34 40.18 40.10 39.80 39.34 39.19 39.08 38.90 38.35 38.16 37.87 37.47 36.81 36.48 35.96 35.61 35.70 36.37 36.94 37.43 37.87 38.02 37.87 37.85 37.83 38.06 38.21 38.36 38.62 38.75 38.63 38.57 38.76 38.89 38.97 39.04 38.84 39.02 39.33 39.41 39.21 39.24 39.14 39.04 38.77 38.50 38.36 38.17 37.99 37.85 37.37 36.84 36.23 36.06 35.94 35.72 35.33 35.55
38.24 37.76 37.18 36.63 36.61 37.45 38.51 39.15 39.30 39.27 39.37 39.69 39.40 38.84 38.15 37.92 37.73 37.41 36.77 35.80 36.05 36.15 36.22 36.62 35.93 35.96 36.31 36.85 37.43 37.86 38.22 38.47 38.44 38.38 38.36 38.28 38.37 38.54 38.63 38.81 38.64 38.72 38.75 38.78 38.82 38.95 38.94 38.65 38.92 39.10 39.32 39.45 39.31 39.08 38.99 38.73 38.64 38.18 37.85 37.36 37.49 37.27 36.88 36.26 36.22 36.05 35.82 35.55 34.59
37.76 37.19 36.67 36.56 37.08 38.01 38.96 39.41 39.19 38.55 37.89 37.44 37.17 36.62 36.08 36.02 36.27 36.08 35.59 34.76 34.63 35.16 36.02 36.86 36.46 36.58 37.04 37.74 38.29 38.55 38.67 38.65 38.58 38.73 38.54 38.47 38.16 38.16 38.34 38.60 38.32 38.22 38.44 38.71 38.56 38.56 38.60 38.41 38.68 38.86 39.04 39.40 39.08 38.89 38.93 39.02 38.70 38.25 37.76 37.40 37.58 37.49 37.31 37.13 36.97 36.59 36.23 35.95 34.51
36.83 36.43 36.25 36.57 37.11 37.33 37.58 38.04 37.52 36.99 36.41 36.16 35.17 34.30 33.85 34.41 34.89 34.94 34.57 33.86 34.34 35.22 36.06 36.61 37.01 37.38 37.83 38.33 38.35 38.56 38.60 38.40 38.39 38.24 38.04 37.71 37.30 37.12 37.35 37.85 37.89 37.93 37.93 38.20 38.24 38.46 38.68 38.68 39.04 39.22 39.22 38.99 38.80 38.84 39.02 39.29 38.65 38.33 38.11 37.89 37.98 37.62 37.35 37.54 37.56 37.31 36.98 36.71 35.37
36.45 35.55 35.13 35.76 36.17 36.07 35.92 35.72 35.58 35.38 35.11 34.74 34.48 34.25 34.17 33.91 34.25 34.21 34.32 34.70 35.42 35.95 36.37 36.68 37.84 38.24 38.34 38.44 38.24 38.23 38.18 38.04 37.85 37.84 37.74 36.97 36.88 37.06 37.43 37.75 37.93 38.47 38.92 39.19 39.10 39.14 39.23 39.18 39.67 39.58 39.30 39.11 39.11 39.16 39.20 39.24 38.69 38.38 38.29 38.34 38.25 37.94 37.68 37.60 37.66 37.54 37.24 36.98 36.10
35.58 34.49 33.76 33.72 34.19 34.29 34.12 33.96 33.77 33.71 33.75 33.65 33.40 33.23 33.49 34.41 34.64 34.82 35.15 35.52 35.46 35.70 36.23 37.10 37.83 38.11 38.06 38.27 38.14 38.04 37.89 37.48 37.42 37.15 36.96 36.49 36.73 37.10 37.42 37.60 37.78 38.55 39.32 39.55 39.59 39.55 39.46 39.49 39.62 39.53 39.39 39.43 39.16 39.20 39.24 39.02 38.56 38.20 37.98 37.94 37.95 37.96 37.75 37.44 37.59 37.34 37.01 36.37 35.55
33.92 33.42 33.02 32.90 32.69 32.73 32.56 32.46 32.24 32.28 32.44 32.42 32.26 32.31 32.73 33.23 33.45 33.70 34.07 34.84 35.61 36.06 36.74 37.60 37.91 38.14 38.24 37.86 37.76 37.39 37.06 36.60 36.37 36.27 36.18 36.04 36.49 36.87 37.19 37.37 37.60 38.23 38.91 39.22 39.22 39.31 39.40 39.40 39.44 39.20 39.06 38.92 39.24 39.20 39.02 38.88 38.43 37.89 37.40 37.19 37.70 37.85 37.61 36.92 37.07 36.72 35.92 34.88 34.12
32.59 32.54 32.55 32.50 32.10 31.63 31.43 31.32 31.50 31.92 32.42 32.75 32.15 32.08 32.35 32.79 33.28 33.85 34.47 35.10 35.88 36.44 37.07 37.76 37.72 37.88 37.87 37.71 37.07 36.43 35.91 35.68 35.68 35.68 35.77 35.77 36.27 37.01 37.87 38.28 38.32 38.41 38.50 38.68 38.85 39.02 39.11 39.11 39.39 39.20 39.02 39.06 39.11 38.97 38.84 38.58 38.04 37.50 37.15 36.89 37.31 37.49 37.15 36.37 35.64 35.02 34.37 33.48 32.80
32.21 31.79 31.43 31.42 31.40 31.22 31.11 30.99 31.25 31.66 32.03 32.12 31.82 31.92 32.35 33.03 33.41 34.10 34.85 35.64 35.88 36.39 37.06 37.72 37.47 37.46 37.32 36.85 36.25 35.69 35.46 35.73 35.59 35.77 36.09 36.24 36.70 37.42 38.01 38.28 38.27 38.17 38.21 38.48 38.89 39.11 39.11 39.29 39.34 39.25 39.07 38.97 38.84 38.54 38.42 38.29 37.83 37.38 36.99 36.72 36.40 35.93 35.37 34.57 33.71 33.25 32.83 32.14 31.66
32.23 31.49 31.01 31.05 31.05 30.85 30.62 30.76 30.86 31.16 31.52 31.75 31.89 32.17 32.44 32.99 33.63 34.37 35.16 35.91 35.79 36.23 36.82 37.21 37.24 36.96 36.54 35.80 35.66 35.42 35.37 35.91 36.42 37.01 37.42 37.78 37.74 37.83 38.01 38.41 38.36 38.39 38.42 38.69 39.16 39.30 39.30 39.29 39.11 38.84 38.84 38.80 38.50 38.25 38.09 37.96 37.32 36.72 36.07 35.67 34.66 33.82 32.90 32.16 31.79 31.63 31.45 31.03 30.90
31.38 30.69 30.18 30.21 30.38 30.32 30.21 30.75 30.84 31.10 31.36 31.71 31.92 32.17 32.62 33.14 33.89 34.64 35.33 35.79 35.82 35.95 36.18 36.92 37.10 36.77 36.12 35.69 35.69 35.69 35.87 36.51 37.46 38.14 38.42 38.29 38.11 38.29 38.65 38.88 38.92 38.95 38.98 39.20 39.43 39.43 39.38 39.20 38.84 38.58 38.50 38.60 38.28 37.78 37.06 36.17 35.27 34.37 33.75 33.19 32.31 31.48 30.82 30.31 30.06 30.07 30.05 29.70 29.51
30.18 29.67 29.43 29.32 29.35 29.65 30.10 30.68 30.92 30.95 31.10 31.47 31.71 32.03 32.55 33.46 33.96 34.57 35.09 35.35 35.28 35.45 35.94 36.70 37.10 36.95 36.66 36.60 36.51 36.56 37.01 37.87 38.50 38.60 38.61 38.76 38.76 38.76 38.85 39.03 39.12 39.12 39.16 39.28 39.58 39.49 39.31 38.87 38.44 38.18 37.84 37.60 36.93 36.00 34.72 33.17 32.26 31.63 31.10 30.55 30.05 29.60 29.27 29.02 28.67 28.59 28.46 28.16 28.02
29.31 29.12 29.06 28.95 29.05 29.51 30.01 30.47 30.54 30.52 30.72 31.08 31.26 31.66 32.24 33.10 33.64 34.29 34.90 35.12 35.27 35.65 36.05 36.51 36.87 37.13 37.25 37.33 37.60 37.87 38.23 38.68 38.82 38.83 38.75 38.86 39.05 39.14 39.05 38.96 39.01 39.02 39.12 39.17 39.20 39.12 38.69 38.00 37.32 36.50 35.78 34.90 34.05 33.04 32.07 31.07 30.33 29.84 29.41 28.91 28.45 28.06 27.90 27.93 27.52 27.16 26.83 26.50 26.55
28.60 28.68 28.90 29.00 29.12 29.55 29.92 30.21 30.43 30.48 30.51 30.84 30.96 31.11 31.53 32.51 33.07 34.00 34.89 35.64 35.85 36.01 36.40 36.63 36.90 37.30 37.79 38.01 38.50 38.96 39.28 39.41 39.09 38.87 38.74 38.67 39.05 39.06 38.94 38.96 38.88 38.76 38.69 38.62 38.21 37.65 36.87 36.05 34.82 33.78 32.90 32.01 31.57 31.02 30.55 30.01 29.42 29.02 28.60 28.01 27.60 27.38 27.35 27.44 27.00 26.58 26.25 26.16 26.08
28.85 28.94 28.81 28.79 29.16 29.47 29.82 30.00 30.24 30.35 30.48 30.75 30.35 30.20 30.48 31.38 32.12 33.39 34.73 35.78 35.99 36.28 36.58 36.89 37.16 37.61 38.11 38.84 38.93 39.34 39.57 39.56 39.28 38.89 38.72 38.51 38.89 38.86 38.78 38.58 38.36 38.09 37.76 37.27 36.45 35.47 34.56 33.68 32.83 32.18 31.65 31.17 30.83 30.46 29.89 29.61 29.32 29.16 28.92 28.69 28.42 28.29 28.21 28.07 27.58 27.06 26.72 26.69 26.53
29.60 29.45 28.93 28.86 29.34 29.59 29.69 29.82 29.92 30.05 30.09 30.21 29.57 29.41 29.62 30.51 31.59 33.06 34.51 35.46 35.95 36.32 36.49 36.58 36.89 37.29 37.79 38.31 38.77 39.27 39.51 39.43 39.16 38.95 38.70 38.58 38.57 38.42 38.13 37.77 37.34 36.95 36.50 35.87 34.87 33.93 33.10 32.40 31.98 31.48 31.06 30.60 30.19 29.85 29.46 29.36 29.24 29.16 29.19 29.16 28.84 28.60 28.47 28.22 27.81 27.37 27.04 26.87 26.73
30.12 29.78 29.28 29.13 29.53 29.79 29.83 29.66 29.56 29.57 29.44 29.22 28.91 28.97 29.43 30.51 31.92 33.22 34.43 34.96 35.70 36.05 36.06 35.74 35.86 36.03 36.34 36.58 37.46 38.21 38.79 39.06 38.85 38.45 38.17 37.94 37.77 37.52 37.23 36.96 36.51 35.91 35.28 34.59 33.86 33.12 32.27 31.35 31.00 30.58 30.14 29.75 29.60 29.28 29.02 28.98 28.82 28.71 28.68 28.71 28.27 28.07 27.80 27.77 27.38 27.13 26.85 26.80 26.72
30.96 30.33 29.65 29.23 29.69 29.99 29.92 29.52 29.20 29.01 28.85 28.60 28.69 29.03 29.75 31.10 32.30 33.35 34.02 34.16 34.87 35.27 35.14 34.48 34.40 34.65 35.20 35.91 36.30 36.95 37.42 37.71 37.24 36.84 36.50 36.40 36.35 36.17 35.96 35.58 35.04 34.40 33.72 32.98 32.48 31.94 31.36 30.59 30.36 30.13 29.77 29.54 29.24 29.03 28.77 28.58 28.33 28.08 27.91 27.77 27.43 27.20 27.15 27.09 27.01 27.12 27.26 27.10 27.30
31.85 31.17 30.40 29.94 30.11 29.95 29.72 29.23 28.93 28.74 28.60 28.57 28.94 29.69 30.65 31.73 33.07 33.80 33.92 33.58 33.40 33.64 33.87 33.42 33.30 33.59 34.23 35.00 35.20 35.09 34.96 34.58 34.05 33.84 33.81 33.79 33.87 33.90 33.76 33.50 33.17 32.63 32.10 31.53 31.12 30.84 30.72 30.59 30.62 30.49 30.16 29.82 29.44 28.92 28.47 28.17 27.89 27.71 27.66 27.48 27.31 27.22 27.22 27.34 27.37 27.57 27.82 27.94 28.22
32.27 31.90 31.41 31.07 30.45 29.87 29.36 29.17 28.89 28.85 28.96 29.52 29.94 30.95 32.02 32.94 34.03 34.40 34.20 33.29 32.45 32.27 32.38 32.29 32.20 32.57 32.99 33.43 33.09 32.76 32.20 31.61 31.51 31.62 31.68 31.68 31.86 31.91 32.03 32.01 31.85 31.59 31.34 31.15 31.08 31.10 31.13 31.29 31.25 31.10 30.74 30.21 29.72 29.19 28.78 28.39 28.14 27.97 27.86 27.83 27.72 27.75 27.84 27.92 27.87 27.76 27.79 27.90 28.07
32.64 32.21 31.63 30.93 30.35 29.65 29.30 29.29 29.36 29.66 30.07 30.73 31.24 32.02 32.99 33.84 34.23 34.29 33.93 33.11 32.59 32.35 32.36 32.41 32.33 32.43 32.52 32.31 32.04 31.76 31.21 30.72 31.08 31.23 31.26 31.16 31.22 31.34 31.47 31.49 31.45 31.40 31.42 31.23 31.57 31.66 31.57 31.57 31.38 31.09 30.57 30.02 29.64 29.25 28.97 28.68 28.42 28.00 27.63 27.43 27.51 27.45 27.37 27.30 27.16 27.01 26.96 27.01 27.00
33.27 32.27 31.31 30.47 30.17 29.89 29.83 29.70 30.26 30.80 31.38 31.74 32.13 32.70 33.47 34.20 34.28 34.11 33.94 33.74 33.55 33.63 33.96 34.32 34.21 34.00 33.72 33.37 33.11 32.68 32.15 31.41 31.32 31.25 31.08 30.92 31.16 31.42 31.53 31.70 31.70 31.54 31.38 31.20 31.19 31.14 31.13 30.96 30.57 30.08 29.62 29.27 28.94 28.72 28.52 28.22 27.59 26.85 26.12 25.68 25.56 25.50 25.41 25.38 25.38 25.35 25.37 25.37 25.43
33.61 32.33 31.20 30.55 29.99 30.04 30.44 30.55 31.30 31.92 32.33 32.57 32.95 33.27 33.69 34.36 34.72 34.66 34.37 34.52 34.27 34.72 35.39 35.65 35.70 35.15 34.66 34.12 33.60 33.07 32.49 31.61 31.20 30.86 30.73 30.90 31.27 31.62 31.89 31.84 31.68 31.37 31.16 31.18 31.01 30.75 30.24 29.83 29.42 28.99 28.55 28.29 27.92 27.60 27.24 27.01 26.30 25.44 24.52 24.02 23.75 23.66 23.57 23.40 23.40 23.37 23.46 23.54 23.81
33.53 32.37 31.65 31.65 30.81 30.63 31.00 31.66 32.55 33.17 33.63 33.86 34.00 34.07 34.36 35.08 35.43 35.44 35.11 34.88 34.90 35.14 35.55 35.72 35.68 35.22 34.51 33.80 33.03 32.29 31.59 31.16 30.75 30.65 30.75 30.89 31.39 31.71 31.85 31.57 31.39 31.18 31.21 31.52 31.69 31.55 31.02 30.12 29.59 28.98 28.44 27.94 27.28 26.57 26.04 25.60 24.59 23.90 23.52 23.25 22.95 22.66 22.48 22.39 22.27 22.30 22.42 22.13 22.45
33.20 32.35 31.65 31.58 31.85 32.16 32.71 33.78 34.39 34.73 34.96 35.02 35.33 35.61 35.73 35.73 35.87 36.27 36.37 36.05 35.67 35.42 35.23 35.09 34.57 34.25 33.63 32.83 31.91 31.18 30.68 30.42 30.79 30.77 30.80 30.96 31.32 31.64 31.71 31.77 31.84 31.96 32.11 31.99 33.62 34.45 34.43 32.99 32.20 30.68 29.20 27.77 26.76 25.66 24.74 23.91 23.40 22.98 22.87 22.89 22.66 22.36 22.19 22.27 22.01 21.98 21.92 21.39 21.18
32.94 32.39 32.07 32.48 33.34 34.10 34.79 35.68 35.89 35.97 35.87 35.90 36.50 36.85 36.93 36.69 36.58 36.54 36.64 36.51 35.68 35.08 34.48 33.94 33.44 32.68 31.83 31.23 30.48 30.00 29.82 29.85 30.55 30.82 30.95 31.21 31.45 31.82 32.17 32.86 32.99 32.78 32.78 33.39 34.40 34.83 34.95 35.05 34.56 32.61 29.91 27.41 26.08 24.95 23.91 23.08 22.75 22.45 22.07 21.83 21.74 21.65 21.71 22.04 22.16 22.10 21.92 21.74 20.77
32.73 33.05 33.65 34.80 35.60 35.92 36.11 36.21 36.15 36.15 36.34 36.69 37.25 37.43 37.48 37.03 36.48 36.12 35.76 35.35 34.44 33.67 33.13 32.59 31.74 30.77 29.97 29.81 29.58 29.55 29.62 29.85 30.69 31.13 31.41 31.43 32.13 32.69 33.12 33.28 32.74 32.33 32.50 33.62 34.28 34.43 34.40 34.51 34.47 33.43 31.30 27.54 25.64 24.38 23.55 22.72 21.95 21.48 21.12 20.77 20.59 20.65 20.68 21.09 21.48 21.74 21.92 22.10 21.24
32.46 33.39 34.27 35.13 35.65 36.10 36.25 36.50 36.61 36.89 37.01 37.21 36.84 36.65 36.46 35.85 34.99 34.30 33.85 33.40 32.82 32.42 32.15 31.74 30.35 29.81 29.63 29.56 29.54 29.51 29.78 30.21 31.41 32.38 33.25 33.78 33.40 32.84 32.33 32.03 31.35 31.22 31.88 33.29 33.64 33.65 33.61 33.59 33.69 33.59 32.47 29.36 25.43 23.59 22.60 21.74 21.00 20.20 19.58 19.32 19.20 19.29 19.50 20.00 20.74 21.27 21.68 22.01 21.92
32.20 32.85 33.65 34.66 35.31 35.66 35.87 35.81 35.88 35.89 35.88 35.64 35.17 34.97 34.78 34.42 33.83 33.29 32.71 32.40 32.42 32.42 32.22 31.43 30.03 29.76 29.97 29.81 29.72 30.17 31.22 32.82 34.29 34.68 34.20 33.33 32.43 31.58 30.82 29.98 29.32 29.73 30.95 32.61 32.68 32.65 32.65 32.77 32.83 33.25 33.29 32.40 26.31 22.16 20.11 19.79 19.58 19.20 18.84 18.57 18.55 18.78 19.11 19.91 20.89 21.60 21.92 22.22 22.69
31.98 32.85 33.73 34.13 34.36 34.51 34.39 34.18 34.08 34.02 34.17 34.34 34.28 34.07 33.95 33.80 33.44 33.08 32.72 32.50 32.77 32.76 32.28 31.52 31.11 31.15 31.38 31.65 33.05 34.45 35.19 35.17 34.67 33.71 32.43 31.10 30.19 29.66 29.12 28.67 27.97 28.35 29.47 31.14 31.42 31.62 31.93 32.18 32.48 33.12 33.64 33.48 27.64 22.07 18.33 18.01 18.07 18.40 18.75 18.93 18.99 19.02 19.44 20.59 20.77 21.12 21.83 22.72 22.98
31.75 32.69 33.40 33.26 33.15 33.21 33.12 32.95 33.07 33.30 33.67 34.00 34.03 34.11 34.06 33.94 33.70 33.38 33.11 33.02 33.04 32.79 32.40 32.33 32.73 33.63 34.60 35.62 35.70 35.29 34.36 33.18 32.05 30.80 29.61 28.69 28.17 27.70 27.35 26.86 26.08 26.33 27.65 29.91 30.46 30.93 31.47 32.04 32.54 33.35 33.89 33.85 27.94 22.19 18.33 17.83 17.95 18.48 19.20 19.67 19.76 20.06 20.39 20.86 20.92 21.21 21.57 21.69 22.21
31.10 31.61 32.02 32.27 32.32 32.35 32.38 32.52 32.74 33.09 33.50 33.89 34.14 34.23 34.13 34.12 34.00 33.93 33.77 33.64 33.54 33.61 33.86 34.35 34.33 34.28 34.25 34.14 33.29 32.20 31.01 29.89 28.93 28.13 27.42 26.67 26.15 25.66 25.29 25.03 24.12 24.38 25.99 28.96 29.85 30.67 31.44 32.17 32.78 33.26 33.53 33.28 28.55 23.02 18.95 18.33 18.40 18.69 19.08 19.35 19.65 19.80 20.30 21.63 21.92 21.60 21.27 21.54 21.86
30.05 30.31 30.49 30.49 30.73 31.12 31.51 32.05 32.45 32.85 33.38 33.94 34.10 34.12 34.18 34.21 34.38 34.28 34.07 33.85 33.49 33.27 33.08 32.54 31.62 30.98 30.52 29.99 29.50 29.03 28.33 27.55 26.73 26.08 25.51 24.69 24.05 23.57 23.29 23.25 22.60 23.87 26.11 28.57 29.61 30.64 31.53 32.37 32.45 32.52 32.52 32.57 28.00 22.75 18.78 18.01 18.16 18.58 18.97 19.26 19.65 19.71 19.74 19.80 21.04 21.45 21.57 21.66 22.27
28.84 29.22 29.54 29.61 29.84 30.36 31.07 31.85 32.21 32.68 33.17 33.60 33.80 33.92 34.07 34.10 34.03 33.61 33.10 32.48 32.04 31.54 30.67 29.64 28.72 28.11 27.72 27.27 26.99 26.76 26.48 25.80 25.21 24.45 23.59 22.69 21.84 21.41 21.40 21.59 21.01 23.33 26.51 28.38 29.69 30.85 31.60 32.01 31.79 31.64 31.52 31.75 26.84 22.07 18.61 17.81 17.99 18.20 18.62 18.74 19.27 19.62 19.80 20.12 20.54 21.10 21.54 21.80 22.57
28.62 29.16 29.66 30.02 30.46 30.84 31.37 31.99 32.47 32.83 33.11 33.22 33.25 33.49 33.67 33.66 33.25 32.47 31.58 30.58 30.21 29.65 28.84 27.88 27.11 26.55 26.08 25.91 25.40 25.17 24.92 24.48 24.02 23.43 22.50 21.37 20.42 20.13 20.14 20.38 19.80 22.57 26.20 28.47 29.93 30.80 31.34 31.26 31.02 31.02 30.62 29.27 24.03 20.32 18.35 17.88 18.03 18.12 18.15 18.33 18.95 19.36 19.63 20.24 20.83 21.36 21.89 22.42 22.89
29.44 29.53 29.85 30.46 31.07 31.55 31.92 32.24 32.59 32.80 32.87 32.71 32.63 32.75 32.93 32.95 32.27 31.36 30.33 29.15 28.81 28.26 27.61 26.83 26.28 25.97 25.58 25.30 24.75 24.32 23.94 23.45 22.95 22.41 21.69 20.57 19.53 18.94 18.63 18.66 18.16 21.01 25.09 28.08 29.69 30.51 30.81 30.81 30.65 30.71 29.88 27.13 22.24 19.35 18.02 17.56 17.97 18.00 17.86 17.89 18.83 19.51 20.01 20.75 21.51 22.16 22.66 23.21 23.33
30.68 30.68 30.69 31.16 31.75 32.12 32.35 32.59 32.64 32.55 32.49 32.35 32.39 32.44 32.21 31.61 30.88 30.04 29.02 27.94 27.64 27.19 26.78 26.19 25.94 25.70 25.39 24.97 24.48 23.85 23.12 22.40 21.68 21.01 20.35 19.43 18.13 17.13 16.51 16.49 16.26 18.60 22.57 26.74 28.90 29.93 30.30 30.45 30.39 30.05 28.51 24.56 20.77 18.79 17.86 17.53 17.88 17.94 17.89 18.09 19.42 20.28 20.92 21.63 21.89 22.24 22.68 23.18 24.20
32.00 32.00 32.07 32.24 32.44 32.56 32.66 32.71 32.49 32.31 32.15 32.24 32.28 31.92 31.27 30.30 29.45 28.69 27.94 26.90 26.64 26.19 25.89 25.55 25.42 25.11 24.53 23.81 23.10 22.48 21.94 20.82 19.88 19.11 18.35 17.39 16.15 15.12 14.68 14.94 15.44 17.44 20.76 25.56 28.07 29.45 29.92 30.00 30.03 29.55 27.72 23.18 20.48 18.92 18.18 17.94 17.86 17.92 18.53 19.71 20.92 21.01 20.96 21.80 22.39 23.09 23.76 24.46 26.13
32.99 33.16 33.25 32.97 32.81 32.60 32.54 32.56 32.29 32.15 32.01 31.96 31.56 30.85 30.11 29.10 28.34 28.00 27.47 26.06 25.63 25.21 24.85 24.54 24.41 23.90 23.05 22.05 21.18 20.63 20.05 18.91 17.69 16.89 16.24 15.34 15.03 15.32 15.54 14.72 15.27 16.95 20.08 24.64 27.26 28.68 29.33 29.59 29.62 29.52 28.24 24.69 21.16 19.19 18.33 17.94 17.80 18.15 19.00 19.92 20.59 20.57 20.63 21.66 23.53 24.80 25.44 25.77 28.00
33.77 33.74 33.60 33.33 33.15 32.87 32.54 32.33 32.19 31.96 31.68 31.17 30.41 29.65 28.90 28.04 27.40 27.27 26.68 24.94 24.20 23.66 23.25 22.92 22.75 22.15 21.15 20.16 18.99 18.28 17.67 17.05 15.92 15.27 14.77 14.26 14.74 17.52 18.92 15.38 14.64 15.63 18.53 23.07 25.98 27.64 28.59 29.04 29.24 29.33 28.40 25.44 21.60 19.45 18.39 17.94 17.86 18.21 18.92 19.77 20.51 21.07 21.84 23.27 24.89 25.61 25.50 24.15 25.90
34.03 33.92 33.71 33.60 33.31 32.81 32.35 31.73 31.36 31.01 30.46 29.57 28.76 28.00 27.20 26.48 25.70 25.17 24.43 23.12 22.60 21.92 21.40 21.03 20.62 19.73 18.74 18.13 16.84 15.81 15.36 15.41 15.32 14.58 13.84 13.75 13.90 16.44 17.77 14.23 13.32 13.64 15.62 19.81 24.11 26.58 27.74 28.48 28.89 29.06 28.59 26.61 22.54 20.07 18.83 18.59 18.53 18.50 18.74 19.71 20.98 22.45 23.62 24.60 24.89 24.98 24.35 22.95 23.07
MSLP
1017.43 1017.31 1017.15 1017.03 1016.91 1016.75 1016.63 1016.47 1016.39 1016.31 1016.31 1016.35 1016.35 1016.31 1016.23 1016.23 1016.19 1016.15 1016.03 1016.03 1016.03 1015.95 1015.87 1015.79 1015.71 1015.59 1015.51 1015.39 1015.23 1015.15 1015.11 1015.15 1015.19 1015.23 1015.35 1015.51 1015.67 1015.79 1015.95 1016.15 1016.31 1016.47 1016.63 1016.75 1016.99 1017.11 1017.19 1017.35 1017.47 1017.59 1017.71 1017.83 1017.95 1018.15 1018.35 1018.55 1018.67 1018.75 1018.83 1018.91 1018.95 1019.03 1019.15 1019.27 1019.35 1019.47 1019.55 1019.59 1019.59
1017.47 1017.31 1017.19 1017.07 1016.95 1016.83 1016.71 1016.51 1016.39 1016.31 1016.31 1016.27 1016.27 1016.27 1016.23 1016.19 1016.19 1016.19 1016.11 1016.11 1016.03 1015.99 1015.87 1015.79 1015.71 1015.63 1015.55 1015.47 1015.43 1015.39 1015.39 1015.47 1015.55 1015.67 1015.79 1015.95 1016.03 1016.19 1016.27 1016.43 1016.59 1016.75 1016.87 1016.99 1017.11 1017.23 1017.31 1017.43 1017.47 1017.59 1017.75 1017.91 1018.07 1018.27 1018.43 1018.51 1018.59 1018.71 1018.75 1018.91 1018.95 1019.03 1019.19 1019.27 1019.39 1019.47 1019.47 1019.47 1019.47
1017.55 1017.43 1017.31 1017.19 1017.03 1016.91 1016.75 1016.55 1016.43 1016.31 1016.27 1016.23 1016.19 1016.19 1016.19 1016.19 1016.19 1016.19 1016.15 1016.11 1016.07 1016.03 1015.87 1015.79 1015.75 1015.71 1015.63 1015.63 1015.63 1015.71 1015.75 1015.79 1015.87 1016.03 1016.23 1016.43 1016.59 1016.63 1016.71 1016.79 1016.91 1016.99 1017.07 1017.11 1017.19 1017.31 1017.35 1017.43 1017.47 1017.63 1017.79 1017.99 1018.11 1018.27 1018.39 1018.47 1018.59 1018.67 1018.75 1018.91 1019.03 1019.11 1019.27 1019.35 1019.35 1019.35 1019.31 1019.31 1019.31
1017.63 1017.55 1017.43 1017.27 1017.07 1016.91 1016.75 1016.59 1016.47 1016.39 1016.31 1016.27 1016.23 1016.19 1016.19 1016.19 1016.15 1016.15 1016.15 1016.15 1016.07 1015.99 1015.87 1015.83 1015.83 1015.79 1015.79 1015.83 1015.91 1016.03 1016.11 1016.15 1016.23 1016.43 1016.63 1016.83 1016.95 1017.03 1017.03 1017.07 1017.15 1017.19 1017.27 1017.27 1017.31 1017.35 1017.43 1017.51 1017.59 1017.71 1017.83 1017.95 1018.07 1018.19 1018.35 1018.51 1018.59 1018.71 1018.83 1018.95 1019.07 1019.19 1019.23 1019.23 1019.23 1019.19 1019.19 1019.19 1019.19
1017.71 1017.59 1017.47 1017.35 1017.15 1016.95 1016.79 1016.67 1016.59 1016.51 1016.43 1016.35 1016.31 1016.27 1016.19 1016.19 1016.15 1016.15 1016.15 1016.11 1016.03 1015.99 1015.91 1015.87 1015.87 1015.91 1015.99 1016.03 1016.15 1016.27 1016.39 1016.47 1016.59 1016.75 1016.91 1017.03 1017.11 1017.19 1017.19 1017.23 1017.31 1017.35 1017.39 1017.47 1017.47 1017.47 1017.51 1017.59 1017.67 1017.75 1017.83 1017.91 1018.07 1018.23 1018.39 1018.55 1018.63 1018.75 1018.87 1018.91 1018.99 1019.03 1019.07 1019.03 1019.03 1019.03 1019.03 1019.07 1019.11
1017.79 1017.71 1017.59 1017.47 1017.19 1017.03 1016.91 1016.79 1016.75 1016.63 1016.59 1016.51 1016.47 1016.39 1016.31 1016.23 1016.19 1016.15 1016.15 1016.11 1016.11 1016.03 1015.99 1015.91 1015.95 1016.03 1016.15 1016.19 1016.31 1016.43 1016.55 1016.71 1016.79 1016.91 1016.99 1017.11 1017.19 1017.19 1017.23 1017.31 1017.31 1017.39 1017.47 1017.51 1017.55 1017.59 1017.59 1017.63 1017.71 1017.79 1017.87 1017.99 1018.11 1018.27 1018.43 1018.55 1018.63 1018.71 1018.75 1018.83 1018.83 1018.83 1018.87 1018.87 1018.79 1018.83 1018.87 1018.91 1018.95
1017.87 1017.79 1017.63 1017.47 1017.27 1017.03 1016.91 1016.91 1016.83 1016.75 1016.71 1016.67 1016.59 1016.51 1016.43 1016.35 1016.31 1016.27 1016.19 1016.15 1016.11 1016.03 1015.99 1015.99 1016.03 1016.15 1016.23 1016.35 1016.51 1016.63 1016.75 1016.75 1016.83 1016.91 1017.03 1017.11 1017.19 1017.19 1017.23 1017.31 1017.35 1017.39 1017.43 1017.51 1017.55 1017.59 1017.59 1017.59 1017.71 1017.83 1017.91 1018.03 1018.15 1018.31 1018.43 1018.51 1018.59 1018.63 1018.67 1018.71 1018.67 1018.63 1018.63 1018.59 1018.59 1018.59 1018.67 1018.71 1018.75
1017.95 1017.87 1017.71 1017.47 1017.27 1017.07 1016.95 1016.91 1016.87 1016.83 1016.83 1016.75 1016.71 1016.63 1016.55 1016.47 1016.43 1016.35 1016.31 1016.19 1016.15 1016.11 1016.11 1016.07 1016.15 1016.19 1016.31 1016.47 1016.59 1016.71 1016.75 1016.79 1016.87 1016.91 1016.95 1017.03 1017.11 1017.15 1017.19 1017.23 1017.31 1017.35 1017.39 1017.47 1017.47 1017.55 1017.59 1017.59 1017.71 1017.79 1017.91 1018.03 1018.15 1018.27 1018.31 1018.39 1018.43 1018.47 1018.47 1018.47 1018.47 1018.43 1018.39 1018.35 1018.35 1018.39 1018.39 1018.43 1018.47
1017.87 1017.75 1017.59 1017.39 1017.19 1017.03 1016.99 1016.91 1016.91 1016.91 1016.91 1016.83 1016.79 1016.75 1016.63 1016.59 1016.51 1016.47 1016.35 1016.31 1016.31 1016.23 1016.19 1016.19 1016.27 1016.31 1016.43 1016.55 1016.63 1016.71 1016.75 1016.79 1016.79 1016.87 1016.91 1016.95 1017.03 1017.03 1017.07 1017.11 1017.19 1017.27 1017.31 1017.35 1017.43 1017.47 1017.51 1017.59 1017.67 1017.75 1017.87 1017.95 1018.03 1018.11 1018.15 1018.19 1018.19 1018.23 1018.23 1018.19 1018.19 1018.15 1018.11 1018.11 1018.15 1018.15 1018.19 1018.19 1018.27
1017.79 1017.67 1017.47 1017.27 1017.07 1016.99 1016.91 1016.91 1016.91 1016.95 1016.91 1016.91 1016.83 1016.75 1016.75 1016.67 1016.59 1016.51 1016.47 1016.39 1016.39 1016.31 1016.31 1016.31 1016.35 1016.43 1016.51 1016.59 1016.63 1016.71 1016.75 1016.79 1016.79 1016.87 1016.91 1016.91 1016.91 1016.95 1016.99 1017.03 1017.07 1017.15 1017.19 1017.27 1017.31 1017.39 1017.47 1017.51 1017.59 1017.71 1017.75 1017.83 1017.87 1017.87 1017.87 1017.87 1017.87 1017.91 1017.91 1017.87 1017.87 1017.87 1017.91 1017.91 1017.95 1017.99 1018.03 1018.03 1018.07
1017.75 1017.59 1017.39 1017.19 1017.03 1016.99 1016.95 1016.91 1016.91 1016.91 1016.87 1016.87 1016.83 1016.79 1016.75 1016.75 1016.71 1016.63 1016.55 1016.51 1016.47 1016.51 1016.47 1016.39 1016.43 1016.55 1016.63 1016.67 1016.67 1016.67 1016.71 1016.75 1016.75 1016.79 1016.87 1016.87 1016.91 1016.91 1016.91 1016.91 1016.91 1016.95 1017.03 1017.19 1017.19 1017.27 1017.31 1017.43 1017.51 1017.59 1017.59 1017.59 1017.59 1017.59 1017.59 1017.59 1017.63 1017.71 1017.75 1017.67 1017.67 1017.75 1017.75 1017.79 1017.83 1017.87 1017.87 1017.91 1017.91
1017.59 1017.43 1017.27 1017.15 1017.03 1016.99 1016.95 1016.91 1016.91 1016.87 1016.87 1016.87 1016.83 1016.83 1016.79 1016.75 1016.67 1016.63 1016.59 1016.59 1016.59 1016.63 1016.59 1016.51 1016.51 1016.59 1016.67 1016.71 1016.67 1016.63 1016.63 1016.67 1016.71 1016.75 1016.75 1016.79 1016.83 1016.83 1016.79 1016.79 1016.79 1016.83 1016.91 1016.99 1017.03 1017.07 1017.15 1017.19 1017.31 1017.35 1017.35 1017.39 1017.39 1017.43 1017.47 1017.47 1017.59 1017.59 1017.59 1017.59 1017.59 1017.63 1017.67 1017.67 1017.67 1017.71 1017.75 1017.75 1017.83
1017.47 1017.31 1017.15 1017.03 1017.03 1016.95 1016.91 1016.91 1016.87 1016.83 1016.83 1016.83 1016.83 1016.79 1016.75 1016.71 1016.67 1016.63 1016.59 1016.59 1016.59 1016.63 1016.63 1016.59 1016.55 1016.59 1016.63 1016.63 1016.59 1016.59 1016.59 1016.59 1016.59 1016.63 1016.67 1016.75 1016.75 1016.75 1016.75 1016.75 1016.75 1016.79 1016.83 1016.87 1016.87 1016.91 1016.91 1016.95 1017.03 1017.07 1017.15 1017.19 1017.23 1017.31 1017.35 1017.39 1017.47 1017.47 1017.47 1017.51 1017.55 1017.59 1017.59 1017.59 1017.59 1017.59 1017.67 1017.75 1017.75
1017.39 1017.23 1017.07 1016.99 1016.91 1016.91 1016.91 1016.87 1016.83 1016.83 1016.79 1016.83 1016.79 1016.75 1016.67 1016.63 1016.63 1016.59 1016.59 1016.55 1016.59 1016.59 1016.63 1016.63 1016.59 1016.59 1016.59 1016.55 1016.51 1016.47 1016.47 1016.51 1016.55 1016.55 1016.59 1016.63 1016.67 1016.67 1016.71 1016.71 1016.71 1016.71 1016.75 1016.75 1016.83 1016.87 1016.91 1016.91 1016.99 1017.03 1017.11 1017.19 1017.19 1017.19 1017.19 1017.23 1017.27 1017.31 1017.31 1017.39 1017.43 1017.43 1017.43 1017.43 1017.47 1017.51 1017.59 1017.63 1017.63
1017.31 1017.15 1017.03 1016.95 1016.91 1016.87 1016.83 1016.87 1016.83 1016.79 1016.75 1016.75 1016.75 1016.67 1016.59 1016.59 1016.59 1016.59 1016.55 1016.51 1016.55 1016.59 1016.59 1016.63 1016.63 1016.59 1016.55 1016.47 1016.43 1016.39 1016.39 1016.43 1016.43 1016.47 1016.51 1016.55 1016.55 1016.59 1016.59 1016.63 1016.63 1016.67 1016.71 1016.75 1016.79 1016.83 1016.87 1016.91 1016.95 1016.99 1017.03 1017.07 1017.03 1017.03 1017.03 1017.03 1017.07 1017.11 1017.15 1017.19 1017.23 1017.23 1017.27 1017.27 1017.31 1017.39 1017.43 1017.47 1017.51
1017.19 1017.07 1017.03 1016.95 1016.87 1016.83 1016.79 1016.79 1016.75 1016.75 1016.75 1016.75 1016.67 1016.63 1016.59 1016.55 1016.51 1016.47 1016.47 1016.47 1016.47 1016.51 1016.55 1016.59 1016.59 1016.59 1016.51 1016.47 1016.35 1016.31 1016.31 1016.31 1016.35 1016.35 1016.39 1016.43 1016.47 1016.47 1016.51 1016.55 1016.59 1016.63 1016.63 1016.71 1016.75 1016.75 1016.75 1016.75 1016.79 1016.83 1016.87 1016.91 1016.91 1016.91 1016.91 1016.91 1016.95 1016.95 1016.99 1017.03 1017.03 1017.07 1017.11 1017.15 1017.19 1017.23 1017.27 1017.31 1017.39
1017.19 1017.03 1016.95 1016.91 1016.87 1016.79 1016.75 1016.75 1016.71 1016.75 1016.75 1016.71 1016.67 1016.59 1016.55 1016.47 1016.47 1016.39 1016.35 1016.31 1016.39 1016.47 1016.47 1016.47 1016.47 1016.51 1016.51 1016.47 1016.35 1016.31 1016.31 1016.31 1016.31 1016.31 1016.31 1016.35 1016.39 1016.47 1016.51 1016.51 1016.59 1016.59 1016.59 1016.63 1016.67 1016.67 1016.67 1016.63 1016.67 1016.71 1016.75 1016.75 1016.79 1016.79 1016.75 1016.79 1016.83 1016.87 1016.87 1016.91 1016.91 1016.95 1016.99 1017.03 1017.07 1017.11 1017.19 1017.23 1017.27
1017.15 1017.03 1016.91 1016.87 1016.83 1016.75 1016.67 1016.59 1016.63 1016.63 1016.67 1016.67 1016.63 1016.59 1016.47 1016.43 1016.35 1016.31 1016.27 1016.19 1016.19 1016.23 1016.31 1016.31 1016.39 1016.43 1016.47 1016.43 1016.35 1016.31 1016.27 1016.27 1016.31 1016.31 1016.35 1016.43 1016.43 1016.47 1016.51 1016.51 1016.51 1016.51 1016.55 1016.59 1016.59 1016.59 1016.59 1016.59 1016.59 1016.63 1016.67 1016.67 1016.67 1016.71 1016.71 1016.75 1016.75 1016.75 1016.79 1016.83 1016.83 1016.87 1016.91 1016.91 1016.95 1017.03 1017.07 1017.11 1017.15
1017.07 1016.95 1016.87 1016.83 1016.71 1016.59 1016.51 1016.47 1016.47 1016.47 1016.47 1016.51 1016.47 1016.47 1016.43 1016.35 1016.31 1016.27 1016.27 1016.19 1016.19 1016.11 1016.11 1016.19 1016.31 1016.35 1016.35 1016.35 1016.31 1016.31 1016.31 1016.31 1016.35 1016.43 1016.43 1016.47 1016.47 1016.47 1016.47 1016.47 1016.47 1016.47 1016.51 1016.55 1016.59 1016.55 1016.55 1016.55 1016.55 1016.59 1016.59 1016.59 1016.63 1016.67 1016.67 1016.71 1016.75 1016.75 1016.75 1016.75 1016.79 1016.79 1016.83 1016.83 1016.83 1016.87 1016.91 1016.91 1016.95
1016.95 1016.87 1016.75 1016.67 1016.55 1016.47 1016.43 1016.31 1016.31 1016.31 1016.31 1016.31 1016.31 1016.31 1016.31 1016.27 1016.19 1016.19 1016.19 1016.19 1016.19 1016.11 1016.07 1016.07 1016.23 1016.31 1016.35 1016.31 1016.31 1016.31 1016.35 1016.39 1016.43 1016.47 1016.47 1016.43 1016.47 1016.47 1016.47 1016.47 1016.47 1016.51 1016.55 1016.55 1016.59 1016.59 1016.55 1016.55 1016.55 1016.55 1016.55 1016.59 1016.59 1016.59 1016.63 1016.63 1016.63 1016.67 1016.71 1016.71 1016.71 1016.75 1016.75 1016.71 1016.71 1016.75 1016.75 1016.75 1016.75
1016.79 1016.71 1016.59 1016.51 1016.47 1016.43 1016.35 1016.23 1016.19 1016.19 1016.19 1016.19 1016.19 1016.19 1016.19 1016.19 1016.15 1016.11 1016.07 1016.07 1016.15 1016.15 1016.07 1016.03 1016.15 1016.27 1016.31 1016.31 1016.31 1016.31 1016.31 1016.39 1016.39 1016.39 1016.43 1016.43 1016.43 1016.43 1016.47 1016.47 1016.55 1016.59 1016.59 1016.59 1016.59 1016.59 1016.59 1016.55 1016.51 1016.51 1016.51 1016.55 1016.55 1016.55 1016.55 1016.55 1016.59 1016.59 1016.63 1016.63 1016.63 1016.63 1016.59 1016.59 1016.59 1016.63 1016.63 1016.63 1016.63
1016.59 1016.51 1016.47 1016.43 1016.39 1016.31 1016.23 1016.19 1016.11 1016.07 1016.07 1016.07 1016.07 1016.07 1016.11 1016.15 1016.11 1016.07 1016.07 1016.19 1016.23 1016.19 1016.03 1015.99 1016.03 1016.07 1016.15 1016.19 1016.23 1016.27 1016.27 1016.31 1016.31 1016.31 1016.35 1016.39 1016.43 1016.43 1016.47 1016.51 1016.59 1016.59 1016.63 1016.67 1016.63 1016.63 1016.59 1016.55 1016.51 1016.47 1016.47 1016.47 1016.47 1016.47 1016.47 1016.51 1016.55 1016.59 1016.59 1016.59 1016.59 1016.59 1016.55 1016.55 1016.55 1016.55 1016.55 1016.55 1016.55
1016.47 1016.43 1016.35 1016.31 1016.31 1016.23 1016.19 1016.15 1016.11 1016.07 1016.03 1016.07 1016.11 1016.19 1016.23 1016.27 1016.27 1016.27 1016.31 1016.43 1016.47 1016.31 1016.11 1015.99 1015.95 1015.99 1016.03 1016.11 1016.19 1016.27 1016.31 1016.31 1016.31 1016.35 1016.39 1016.39 1016.43 1016.47 1016.47 1016.51 1016.59 1016.63 1016.67 1016.67 1016.67 1016.67 1016.63 1016.59 1016.51 1016.47 1016.47 1016.47 1016.47 1016.47 1016.47 1016.51 1016.55 1016.59 1016.59 1016.59 1016.59 1016.55 1016.55 1016.51 1016.47 1016.47 1016.47 1016.47 1016.47
1016.47 1016.39 1016.31 1016.23 1016.23 1016.19 1016.19 1016.15 1016.19 1016.19 1016.27 1016.31 1016.43 1016.51 1016.59 1016.59 1016.55 1016.59 1016.67 1016.75 1016.67 1016.55 1016.39 1016.19 1016.07 1016.03 1016.03 1016.11 1016.19 1016.23 1016.31 1016.35 1016.43 1016.43 1016.43 1016.47 1016.47 1016.47 1016.47 1016.55 1016.59 1016.63 1016.63 1016.63 1016.63 1016.63 1016.59 1016.59 1016.51 1016.47 1016.47 1016.47 1016.47 1016.51 1016.51 1016.55 1016.59 1016.59 1016.59 1016.59 1016.59 1016.55 1016.51 1016.47 1016.47 1016.43 1016.43 1016.39 1016.39
1016.51 1016.43 1016.35 1016.27 1016.23 1016.23 1016.23 1016.27 1016.31 1016.39 1016.47 1016.55 1016.59 1016.63 1016.67 1016.75 1016.75 1016.83 1016.91 1016.91 1016.87 1016.75 1016.63 1016.47 1016.27 1016.15 1016.07 1016.11 1016.15 1016.23 1016.31 1016.39 1016.47 1016.47 1016.47 1016.47 1016.47 1016.47 1016.47 1016.55 1016.55 1016.55 1016.55 1016.55 1016.59 1016.51 1016.47 1016.47 1016.47 1016.47 1016.47 1016.47 1016.51 1016.51 1016.55 1016.55 1016.55 1016.59 1016.59 1016.55 1016.55 1016.55 1016.47 1016.43 1016.39 1016.31 1016.31 1016.31 1016.31
1016.59 1016.51 1016.47 1016.39 1016.31 1016.31 1016.35 1016.47 1016.51 1016.59 1016.59 1016.59 1016.59 1016.59 1016.67 1016.75 1016.83 1016.91 1016.91 1016.91 1016.87 1016.83 1016.75 1016.59 1016.47 1016.31 1016.23 1016.19 1016.19 1016.23 1016.31 1016.35 1016.39 1016.47 1016.51 1016.51 1016.51 1016.51 1016.51 1016.51 1016.47 1016.47 1016.47 1016.47 1016.47 1016.47 1016.43 1016.35 1016.31 1016.39 1016.47 1016.47 1016.51 1016.51 1016.55 1016.51 1016.51 1016.51 1016.51 1016.51 1016.51 1016.51 1016.51 1016.47 1016.31 1016.23 1016.19 1016.19 1016.19
1016.67 1016.59 1016.59 1016.55 1016.51 1016.55 1016.59 1016.71 1016.75 1016.83 1016.87 1016.79 1016.75 1016.75 1016.79 1016.83 1016.87 1016.91 1016.91 1016.87 1016.83 1016.79 1016.71 1016.63 1016.55 1016.47 1016.39 1016.31 1016.31 1016.31 1016.39 1016.43 1016.43 1016.47 1016.51 1016.55 1016.55 1016.55 1016.51 1016.47 1016.47 1016.47 1016.47 1016.43 1016.39 1016.35 1016.35 1016.31 1016.31 1016.31 1016.31 1016.47 1016.47 1016.51 1016.51 1016.47 1016.47 1016.47 1016.47 1016.47 1016.47 1016.47 1016.47 1016.43 1016.31 1016.23 1016.19 1016.07 1016.03
1016.79 1016.75 1016.75 1016.75 1016.79 1016.83 1016.91 1016.91 1017.03 1017.15 1017.19 1017.19 1017.11 1017.07 1017.03 1017.03 1017.03 1017.03 1016.99 1016.91 1016.83 1016.75 1016.67 1016.67 1016.63 1016.59 1016.51 1016.47 1016.47 1016.47 1016.51 1016.51 1016.51 1016.47 1016.47 1016.47 1016.51 1016.55 1016.59 1016.59 1016.51 1016.47 1016.43 1016.39 1016.35 1016.35 1016.35 1016.31 1016.27 1016.23 1016.23 1016.31 1016.39 1016.47 1016.47 1016.47 1016.47 1016.47 1016.47 1016.47 1016.47 1016.43 1016.43 1016.35 1016.27 1016.19 1016.15 1016.03 1015.95
1017.03 1016.91 1016.87 1016.91 1016.99 1017.03 1017.07 1017.15 1017.27 1017.39 1017.47 1017.43 1017.31 1017.23 1017.23 1017.23 1017.19 1017.15 1017.07 1016.99 1016.91 1016.79 1016.75 1016.75 1016.75 1016.71 1016.71 1016.71 1016.67 1016.63 1016.59 1016.59 1016.51 1016.51 1016.51 1016.55 1016.59 1016.59 1016.59 1016.59 1016.59 1016.51 1016.47 1016.47 1016.43 1016.39 1016.35 1016.31 1016.27 1016.19 1016.19 1016.19 1016.31 1016.39 1016.39 1016.47 1016.47 1016.47 1016.47 1016.43 1016.35 1016.31 1016.31 1016.23 1016.19 1016.07 1016.03 1015.91 1015.83
1017.19 1017.11 1017.03 1017.07 1017.15 1017.19 1017.31 1017.39 1017.47 1017.55 1017.51 1017.47 1017.35 1017.31 1017.31 1017.31 1017.31 1017.27 1017.19 1017.07 1017.03 1016.95 1016.91 1016.91 1016.91 1016.87 1016.87 1016.83 1016.75 1016.67 1016.63 1016.59 1016.59 1016.59 1016.59 1016.63 1016.63 1016.59 1016.59 1016.59 1016.59 1016.59 1016.51 1016.47 1016.43 1016.39 1016.31 1016.31 1016.23 1016.19 1016.11 1016.07 1016.23 1016.35 1016.39 1016.43 1016.43 1016.43 1016.39 1016.35 1016.31 1016.23 1016.19 1016.11 1016.03 1015.95 1015.87 1015.79 1015.71
1017.47 1017.35 1017.31 1017.31 1017.35 1017.43 1017.51 1017.59 1017.59 1017.59 1017.51 1017.43 1017.35 1017.39 1017.43 1017.47 1017.47 1017.43 1017.35 1017.31 1017.19 1017.11 1017.07 1017.03 1017.03 1016.99 1016.91 1016.83 1016.75 1016.75 1016.75 1016.71 1016.67 1016.67 1016.67 1016.71 1016.71 1016.67 1016.67 1016.67 1016.67 1016.63 1016.55 1016.47 1016.43 1016.35 1016.31 1016.27 1016.19 1016.15 1016.07 1016.03 1016.19 1016.31 1016.31 1016.39 1016.35 1016.31 1016.31 1016.19 1016.15 1016.07 1016.03 1015.95 1015.87 1015.83 1015.75 1015.67 1015.59
1017.75 1017.67 1017.59 1017.59 1017.59 1017.59 1017.63 1017.63 1017.59 1017.55 1017.47 1017.47 1017.47 1017.47 1017.55 1017.59 1017.59 1017.51 1017.47 1017.39 1017.31 1017.27 1017.19 1017.15 1017.15 1017.07 1017.03 1016.91 1016.91 1016.87 1016.79 1016.75 1016.75 1016.75 1016.75 1016.75 1016.75 1016.75 1016.75 1016.71 1016.67 1016.59 1016.55 1016.47 1016.43 1016.31 1016.27 1016.19 1016.15 1016.11 1016.03 1016.03 1016.15 1016.27 1016.31 1016.31 1016.27 1016.19 1016.15 1016.03 1015.99 1015.91 1015.87 1015.75 1015.71 1015.63 1015.59 1015.51 1015.47
1018.03 1017.91 1017.83 1017.83 1017.79 1017.75 1017.71 1017.63 1017.59 1017.51 1017.47 1017.47 1017.47 1017.51 1017.59 1017.59 1017.55 1017.47 1017.43 1017.39 1017.35 1017.35 1017.31 1017.31 1017.27 1017.23 1017.15 1017.03 1016.99 1016.91 1016.87 1016.83 1016.75 1016.75 1016.75 1016.79 1016.79 1016.79 1016.75 1016.71 1016.63 1016.59 1016.55 1016.47 1016.39 1016.31 1016.23 1016.19 1016.11 1016.07 1016.03 1015.99 1016.07 1016.19 1016.27 1016.19 1016.15 1016.07 1015.99 1015.91 1015.83 1015.75 1015.67 1015.63 1015.59 1015.47 1015.39 1015.31 1015.27
1018.19 1018.11 1018.03 1017.99 1017.87 1017.83 1017.75 1017.63 1017.59 1017.55 1017.51 1017.47 1017.51 1017.51 1017.51 1017.51 1017.51 1017.47 1017.47 1017.47 1017.43 1017.39 1017.39 1017.43 1017.35 1017.31 1017.19 1017.15 1017.07 1016.99 1016.91 1016.87 1016.83 1016.83 1016.83 1016.87 1016.91 1016.91 1016.83 1016.75 1016.71 1016.59 1016.55 1016.47 1016.39 1016.31 1016.19 1016.15 1016.07 1016.03 1015.95 1015.91 1016.03 1016.11 1016.15 1016.11 1016.03 1015.95 1015.87 1015.79 1015.71 1015.59 1015.51 1015.47 1015.43 1015.31 1015.23 1015.19 1015.03
1018.27 1018.19 1018.15 1018.03 1017.91 1017.83 1017.75 1017.67 1017.59 1017.59 1017.55 1017.55 1017.51 1017.47 1017.47 1017.47 1017.47 1017.47 1017.51 1017.51 1017.47 1017.47 1017.43 1017.39 1017.31 1017.23 1017.19 1017.11 1017.07 1017.07 1017.03 1016.95 1016.91 1016.91 1016.91 1016.91 1016.95 1016.95 1016.91 1016.79 1016.71 1016.59 1016.55 1016.47 1016.35 1016.27 1016.19 1016.11 1016.03 1015.95 1015.87 1015.87 1015.99 1016.03 1016.03 1015.99 1015.91 1015.83 1015.75 1015.67 1015.55 1015.47 1015.35 1015.27 1015.19 1015.11 1015.03 1014.91 1014.79
1018.31 1018.27 1018.19 1018.03 1017.91 1017.83 1017.75 1017.71 1017.63 1017.59 1017.59 1017.59 1017.55 1017.55 1017.51 1017.47 1017.47 1017.47 1017.47 1017.47 1017.47 1017.43 1017.39 1017.31 1017.27 1017.19 1017.15 1017.11 1017.07 1017.07 1017.07 1017.07 1017.03 1017.03 1016.99 1017.03 1017.03 1017.03 1017.03 1016.91 1016.79 1016.71 1016.59 1016.47 1016.35 1016.27 1016.19 1016.07 1015.95 1015.87 1015.79 1015.79 1015.87 1015.91 1015.87 1015.87 1015.75 1015.71 1015.63 1015.55 1015.43 1015.31 1015.19 1015.07 1014.99 1014.91 1014.79 1014.71 1014.59
1018.31 1018.27 1018.19 1018.07 1017.95 1017.87 1017.79 1017.75 1017.71 1017.67 1017.63 1017.59 1017.59 1017.59 1017.55 1017.51 1017.47 1017.47 1017.47 1017.43 1017.43 1017.35 1017.31 1017.27 1017.23 1017.19 1017.19 1017.19 1017.19 1017.15 1017.19 1017.19 1017.19 1017.15 1017.07 1017.11 1017.15 1017.19 1017.15 1017.03 1016.91 1016.79 1016.63 1016.51 1016.35 1016.23 1016.11 1016.03 1015.87 1015.79 1015.75 1015.75 1015.75 1015.75 1015.75 1015.71 1015.63 1015.59 1015.47 1015.39 1015.27 1015.15 1015.03 1014.91 1014.75 1014.67 1014.59 1014.51 1014.43
1018.31 1018.27 1018.19 1018.07 1017.99 1017.91 1017.87 1017.79 1017.75 1017.75 1017.71 1017.67 1017.63 1017.59 1017.59 1017.55 1017.51 1017.47 1017.43 1017.43 1017.43 1017.39 1017.35 1017.31 1017.27 1017.23 1017.27 1017.27 1017.31 1017.23 1017.19 1017.23 1017.27 1017.27 1017.23 1017.19 1017.23 1017.31 1017.27 1017.19 1016.99 1016.83 1016.67 1016.51 1016.35 1016.19 1016.03 1015.95 1015.83 1015.71 1015.63 1015.63 1015.67 1015.63 1015.59 1015.59 1015.47 1015.43 1015.31 1015.19 1015.03 1014.91 1014.83 1014.71 1014.59 1014.51 1014.39 1014.31 1014.15
1018.35 1018.31 1018.23 1018.19 1018.07 1018.03 1017.91 1017.87 1017.87 1017.79 1017.75 1017.75 1017.71 1017.67 1017.59 1017.55 1017.51 1017.47 1017.47 1017.47 1017.47 1017.47 1017.47 1017.47 1017.43 1017.39 1017.39 1017.43 1017.47 1017.35 1017.31 1017.27 1017.31 1017.31 1017.31 1017.31 1017.31 1017.31 1017.31 1017.19 1017.03 1016.91 1016.71 1016.47 1016.31 1016.19 1016.03 1015.87 1015.75 1015.59 1015.51 1015.51 1015.55 1015.51 1015.47 1015.47 1015.39 1015.27 1015.15 1015.03 1014.91 1014.79 1014.67 1014.55 1014.43 1014.31 1014.19 1014.03 1013.91
1018.43 1018.39 1018.31 1018.27 1018.19 1018.07 1018.03 1017.99 1017.91 1017.87 1017.83 1017.83 1017.79 1017.75 1017.71 1017.67 1017.59 1017.55 1017.55 1017.59 1017.59 1017.63 1017.63 1017.59 1017.59 1017.55 1017.55 1017.59 1017.59 1017.51 1017.43 1017.31 1017.35 1017.39 1017.35 1017.31 1017.31 1017.19 1017.19 1017.19 1017.03 1016.91 1016.67 1016.47 1016.27 1016.11 1015.95 1015.83 1015.67 1015.51 1015.47 1015.47 1015.39 1015.39 1015.39 1015.31 1015.27 1015.19 1015.03 1014.91 1014.79 1014.63 1014.47 1014.31 1014.19 1014.07 1013.99 1013.87 1013.75
1018.47 1018.47 1018.39 1018.31 1018.23 1018.15 1018.07 1018.03 1017.99 1017.91 1017.87 1017.87 1017.87 1017.83 1017.79 1017.75 1017.71 1017.67 1017.67 1017.71 1017.71 1017.75 1017.75 1017.75 1017.71 1017.67 1017.67 1017.67 1017.67 1017.63 1017.59 1017.47 1017.39 1017.39 1017.39 1017.31 1017.27 1017.19 1017.11 1017.11 1017.03 1016.87 1016.63 1016.43 1016.23 1016.03 1015.87 1015.75 1015.59 1015.47 1015.35 1015.31 1015.27 1015.23 1015.27 1015.23 1015.15 1015.03 1014.95 1014.79 1014.63 1014.47 1014.23 1014.03 1013.91 1013.83 1013.79 1013.71 1013.59
Wind_Speed
5 4 3 3 3 3 3 3 3 3 2 2 3 3 3 3 3 3 3 2 2 2 2 2 2 2 2 3 5 6 7 8 9 9 10 10 9 9 9 10 9 9 9 9 8 7 6 6 5 5 4 4 5 5 4 3 3 3 3 3 2 2 2 2 0 1 2 3 3
6 5 4 3 3 3 3 3 3 2 2 2 2 2 3 3 3 3 2 2 2 2 1 0 1 2 4 6 7 7 8 9 10 10 11 11 10 10 10 10 9 9 9 8 7 6 5 5 5 4 4 4 4 4 3 3 3 3 3 3 2 2 2 1 1 3 3 4 4
6 5 4 3 3 3 2 3 3 3 2 2 2 2 2 2 2 2 2 2 2 1 0 1 2 4 6 7 8 8 8 9 10 11 11 10 9 9 8 8 8 7 7 7 6 6 5 5 5 4 4 4 4 4 3 3 3 3 3 3 2 1 0 1 3 3 3 3 4
6 5 4 4 4 4 3 3 3 3 3 2 2 2 2 2 1 1 1 1 1 1 2 3 3 5 6 8 9 9 9 10 11 11 10 8 7 7 7 7 7 7 6 6 6 6 6 5 4 4 4 4 5 4 3 3 3 2 2 1 1 2 2 3 3 3 3 3 4
6 5 4 4 4 4 3 3 3 3 3 2 2 2 2 1 1 1 0 1 1 2 3 4 5 5 6 8 10 10 10 10 9 8 7 6 6 6 6 6 6 6 6 6 6 6 6 5 4 4 4 4 4 3 3 3 2 2 2 2 2 3 3 3 3 3 3 3 3
6 5 5 4 4 4 3 3 3 3 3 2 2 2 1 1 0 1 2 2 2 3 4 5 6 6 7 9 9 9 9 8 7 6 6 5 5 5 5 6 6 6 6 6 6 6 6 5 4 3 3 3 3 3 3 3 3 3 3 3 3 3 4 4 4 4 4 5 6
5 5 5 4 4 3 3 3 3 3 2 2 2 1 1 1 1 2 2 2 3 3 4 5 6 7 7 8 8 7 6 6 5 5 5 5 4 5 5 5 5 6 6 6 5 5 5 4 4 3 3 3 2 3 3 3 3 3 4 4 4 4 4 5 5 5 6 8 10
5 4 4 4 3 3 3 3 3 3 2 2 1 1 0 1 2 2 3 3 3 3 4 4 6 7 8 7 7 6 6 6 5 5 5 5 5 5 5 6 6 6 5 5 5 5 4 4 3 3 3 2 2 3 4 5 5 5 6 6 5 5 5 6 6 6 7 9 10
4 4 4 3 3 3 3 3 3 2 2 2 1 1 1 1 2 3 3 3 3 3 4 5 6 8 8 7 7 6 6 5 5 5 5 5 5 6 6 6 6 5 5 5 5 5 4 3 3 3 3 3 3 4 5 7 8 8 8 8 7 7 7 6 7 7 7 8 9
4 4 4 3 3 3 3 2 2 2 1 1 1 2 1 1 1 2 3 3 3 4 4 5 6 7 7 6 6 5 5 5 5 5 5 5 6 6 6 5 6 6 5 4 4 4 4 3 3 3 3 4 5 7 8 9 10 10 9 7 7 7 7 6 6 6 6 7 7
4 4 3 3 3 3 2 2 2 1 1 1 2 2 1 1 1 1 2 3 4 4 4 5 6 6 6 5 5 5 5 4 4 5 5 5 5 5 6 6 6 6 5 5 5 4 4 3 4 5 6 6 8 8 9 9 9 9 9 7 6 6 6 5 5 5 5 5 6
4 4 3 3 3 2 2 1 1 1 1 2 1 1 1 0 1 1 2 3 4 4 3 4 6 6 5 4 5 5 5 4 4 4 4 5 5 5 5 5 5 6 6 6 5 5 5 5 6 7 8 8 7 6 6 7 7 7 7 6 5 5 5 5 5 4 4 4 4
4 3 3 3 2 2 1 1 0 1 1 1 1 0 0 0 1 1 3 4 4 4 3 3 5 5 5 5 5 5 4 4 4 4 4 4 4 5 5 5 5 5 6 6 5 5 5 6 6 7 7 7 5 5 5 5 5 6 6 5 5 5 5 6 5 4 3 3 4
3 3 3 2 2 1 0 0 0 0 0 1 1 1 1 1 1 1 2 4 4 4 3 3 3 4 5 5 5 5 5 5 4 4 4 4 5 5 5 5 5 5 5 4 4 4 4 4 4 5 5 5 5 5 5 5 5 6 6 6 6 6 6 6 5 4 3 3 4
3 3 3 2 1 1 0 1 1 1 1 1 2 1 1 1 2 2 2 4 4 4 3 3 3 4 4 5 5 5 5 5 5 5 5 5 5 5 5 5 4 4 4 3 3 3 3 4 4 5 5 6 6 6 6 5 5 5 6 6 6 6 6 6 5 4 4 4 4
3 3 2 2 1 1 1 1 1 1 1 2 2 2 2 2 2 2 3 4 4 4 3 4 4 4 4 5 5 5 5 5 5 5 5 5 5 5 5 4 4 4 4 3 3 4 4 5 5 6 6 6 7 6 6 5 5 5 6 6 6 6 6 6 5 5 5 5 5
4 3 2 2 2 2 2 2 2 2 2 2 2 2 2 2 2 3 4 4 5 5 5 5 5 4 4 4 4 4 4 4 5 4 4 4 4 4 4 4 4 4 4 4 5 5 5 5 5 5 5 6 6 6 6 5 5 5 5 5 5 5 5 5 5 5 5 5 6
4 4 3 2 3 3 4 3 3 3 3 3 3 3 3 3 3 4 4 4 5 6 7 6 5 5 4 4 4 3 3 3 3 3 3 3 3 3 4 4 4 4 4 5 5 6 6 6 5 4 4 5 5 5 5 4 4 4 4 5 5 5 5 5 6 5 6 6 7
5 5 4 4 5 5 5 5 4 4 3 3 3 3 3 3 4 4 4 4 5 6 6 6 5 4 4 4 3 3 2 2 2 2 2 2 2 3 3 4 4 4 4 4 5 5 5 5 5 4 4 4 4 4 4 3 3 4 4 4 5 5 5 6 6 6 6 7 7
6 6 6 6 6 6 5 5 4 4 3 3 3 3 4 5 5 5 5 4 4 4 4 4 4 3 3 3 2 2 1 1 1 1 2 2 2 3 4 4 4 4 4 4 4 4 4 5 4 4 4 4 3 3 3 3 3 3 4 4 5 5 6 6 6 6 6 7 7
7 7 7 6 5 5 5 4 4 3 3 4 4 5 5 5 5 5 5 4 4 4 4 4 4 4 3 3 2 1 1 1 1 1 1 2 2 3 3 3 3 3 3 3 3 4 4 4 4 4 3 3 3 3 3 3 3 3 4 4 4 5 5 6 6 6 6 7 7
8 7 6 6 5 5 4 4 3 3 4 4 5 5 5 5 4 3 2 2 3 3 3 4 4 4 3 2 1 1 0 0 0 1 1 1 2 2 2 2 2 2 3 3 3 4 4 4 4 3 2 2 2 3 3 3 3 3 4 4 5 5 5 5 5 6 6 6 6
8 7 6 5 5 4 4 4 3 3 3 3 3 3 3 2 2 2 2 2 2 2 2 2 2 2 2 1 1 1 1 1 1 1 1 1 1 2 2 1 1 2 3 3 3 3 3 3 3 2 2 1 2 3 3 3 3 3 4 4 5 5 5 5 5 5 5 5 6
8 7 6 4 4 3 3 2 2 1 1 2 2 3 3 4 5 5 4 4 4 3 2 2 2 2 2 2 1 1 1 1 1 2 2 1 1 2 2 1 1 2 3 3 3 3 3 3 2 2 2 2 2 2 3 3 3 3 4 5 5 5 5 5 5 5 5 5 5
9 7 6 4 3 2 1 1 2 2 3 3 3 3 4 4 5 5 5 5 5 5 4 3 2 2 2 2 1 1 1 1 0 1 2 2 2 2 2 2 2 2 2 3 5 6 6 4 3 3 2 2 2 2 3 3 3 4 4 4 5 5 5 5 5 5 5 5 5
8 7 5 3 2 2 3 3 3 3 3 3 3 3 3 3 3 3 3 4 4 4 4 3 3 2 1 1 1 1 1 1 0 1 1 2 3 3 3 3 3 3 3 4 6 7 7 8 7 5 3 2 2 3 3 3 3 3 4 4 4 4 5 5 6 6 5 5 5
7 6 5 4 4 4 5 5 5 5 5 5 5 5 4 3 3 3 3 3 3 3 3 3 3 2 2 1 1 1 0 0 1 1 1 2 3 4 4 4 4 3 4 6 7 8 8 9 9 8 6 3 2 3 3 3 3 3 3 3 3 4 4 5 6 6 6 5 5
6 6 6 6 6 7 7 8 8 8 8 8 7 6 5 5 4 3 3 3 3 3 3 3 2 2 2 2 1 1 1 1 2 2 3 4 4 5 5 4 4 4 5 8 9 9 10 10 10 10 9 5 3 2 3 3 3 3 2 3 3 4 4 5 5 6 6 6 6
6 6 7 8 8 9 9 10 9 8 8 7 6 6 6 6 5 5 5 5 5 5 4 3 3 2 2 2 2 2 2 3 3 4 4 5 5 5 5 5 5 5 7 9 10 10 10 11 11 11 10 8 3 1 2 2 2 2 2 3 3 4 4 5 5 5 6 6 7
7 8 9 10 10 10 10 9 8 7 6 6 7 7 8 8 8 8 8 8 7 5 4 3 3 3 3 3 3 3 4 4 4 4 5 5 5 5 5 5 5 6 7 10 10 10 11 11 10 10 9 7 2 1 2 2 2 2 3 3 4 5 5 6 6 6 6 6 7
8 9 10 10 10 9 9 7 7 7 7 7 9 9 10 10 9 9 8 8 6 5 4 4 3 4 4 4 3 4 4 4 4 4 4 4 4 5 5 6 6 6 7 10 10 11 11 10 10 9 7 5 1 2 2 2 3 3 3 4 5 6 6 6 6 7 7 7 7
8 9 9 9 9 8 7 6 6 6 7 8 9 9 9 8 8 7 7 6 6 5 5 5 5 5 5 5 4 4 4 4 4 4 4 3 3 4 4 5 6 6 7 10 10 10 10 9 8 7 6 4 1 2 3 3 3 3 4 5 6 7 7 6 6 7 7 8 8
7 7 7 7 6 6 5 5 5 5 6 7 7 7 6 6 5 6 6 6 5 6 6 5 5 5 5 4 4 4 4 4 4 4 3 3 3 3 4 5 5 6 7 9 10 9 9 7 6 6 6 5 2 2 3 3 3 3 4 5 6 7 7 7 7 7 7 8 8
5 6 5 5 5 4 4 4 4 5 5 5 5 5 4 4 4 5 5 5 4 4 3 3 3 3 3 3 3 3 4 4 4 4 3 3 3 4 4 5 4 5 7 9 9 8 7 6 6 6 6 5 2 2 2 3 3 3 4 6 6 6 6 7 7 8 8 8 8
4 4 4 4 4 4 4 4 4 4 4 4 4 3 3 3 3 3 3 3 2 2 2 2 2 2 2 2 2 3 3 4 5 5 4 3 3 4 4 5 5 6 8 9 8 7 7 6 7 7 8 6 3 2 2 3 3 4 5 6 6 7 7 7 7 7 8 8 8
3 3 3 3 3 4 4 4 4 3 3 3 3 3 2 2 2 2 2 2 2 2 2 2 3 3 3 3 2 2 3 4 5 5 5 4 3 3 4 5 5 7 8 9 8 7 7 7 8 9 8 6 3 2 2 3 3 4 5 6 7 7 7 7 7 7 7 7 7
2 2 2 3 3 3 3 3 3 3 3 3 3 2 2 2 2 1 1 1 2 2 3 3 3 3 3 3 3 3 3 4 4 5 6 4 3 3 4 5 5 7 8 9 9 8 8 9 10 10 8 5 3 3 3 3 3 4 5 6 6 7 7 7 6 6 7 7 7
1 2 2 2 2 3 3 3 3 4 4 4 3 3 2 2 1 1 1 1 1 2 3 3 3 3 3 3 4 5 5 4 4 4 4 4 3 3 3 4 5 6 8 9 10 10 10 10 11 11 9 5 4 3 3 3 3 4 5 5 6 6 6 5 5 5 6 7 9
2 2 2 2 3 3 3 4 4 4 4 4 3 3 2 2 2 2 1 1 1 2 2 3 3 3 4 4 5 5 5 5 3 3 3 3 3 3 3 4 5 6 8 10 11 11 12 12 12 13 11 7 4 3 3 3 4 4 5 5 5 5 5 5 5 6 6 8 12
2 3 3 3 3 4 4 4 5 4 4 4 4 3 3 2 2 2 2 2 2 2 2 3 4 4 4 4 4 5 5 5 3 2 2 3 4 4 4 3 5 6 8 10 12 12 13 13 14 14 12 7 4 3 3 3 4 4 5 5 5 5 5 6 6 6 6 7 10
3 3 3 4 4 4 4 5 5 4 4 3 3 3 2 2 2 2 2 2 2 2 2 3 4 4 4 3 3 4 4 5 4 3 3 3 4 4 4 3 5 6 8 9 11 12 13 14 14 15 13 8 5 3 2 2 4 5 5 5 5 6 6 7 6 6 6 6 7
Wind_Direction
287 281 272 262 258 258 260 264 262 260 260 264 271 276 279 281 278 280 283 286 277 274 277 286 293 311 344 10 35 47 54 56 58 60 64 69 76 81 84 86 85 84 85 87 89 90 91 92 93 91 88 84 85 87 90 99 105 104 98 90 90 90 89 83 61 250 242 234 234
296 293 287 279 271 267 270 275 275 271 264 254 257 264 268 268 267 271 275 274 265 259 260 299 21 41 46 45 49 54 60 63 64 64 64 64 68 73 79 84 87 91 95 99 100 100 98 97 93 91 88 86 88 90 90 92 90 83 76 69 70 71 74 76 248 245 242 241 237
300 300 300 295 288 283 280 280 282 280 276 270 264 262 261 257 254 256 261 265 267 265 249 71 59 58 59 58 56 58 61 66 67 68 67 66 69 75 82 90 93 96 98 100 100 99 98 96 93 92 92 93 92 89 86 79 77 74 70 65 69 83 152 228 234 235 236 240 239
302 301 298 293 286 280 274 274 279 279 278 278 277 270 259 249 246 248 256 270 303 30 74 80 71 66 65 68 66 65 65 67 71 74 76 76 77 81 86 91 93 94 94 95 96 97 98 97 96 96 97 98 93 89 84 82 84 87 94 120 173 199 212 225 230 232 236 244 245
303 297 288 281 278 274 271 270 274 276 279 288 294 287 275 261 256 253 296 54 64 74 82 85 82 77 73 75 74 73 72 71 77 83 88 89 89 90 91 93 95 96 96 97 99 102 103 101 100 100 101 99 94 94 100 113 122 139 167 195 203 208 214 223 229 232 235 240 241
300 296 292 284 283 283 284 283 278 279 285 302 302 297 293 305 12 81 89 90 92 89 87 85 86 84 81 79 79 80 81 83 88 95 100 102 102 101 101 101 102 103 104 106 108 110 111 108 104 102 102 102 106 119 137 152 168 184 200 213 218 219 221 224 228 228 228 229 230
292 293 294 295 298 302 304 302 298 297 299 307 297 295 305 49 84 96 104 108 102 94 88 87 89 89 89 87 89 93 98 102 104 108 113 118 118 117 116 115 115 115 117 120 121 122 122 117 112 111 112 115 125 150 171 189 200 209 217 224 227 226 226 227 227 225 224 223 223
285 285 287 294 302 309 312 312 314 315 314 312 301 301 337 94 107 109 107 100 97 96 96 96 98 98 100 102 108 114 118 120 124 129 132 134 135 133 131 128 126 127 130 134 137 137 134 126 123 125 128 135 150 179 198 208 213 217 221 226 228 227 226 225 224 222 220 218 217
290 289 291 297 305 311 313 313 315 316 315 317 323 332 356 87 114 111 106 103 106 107 106 105 105 106 110 117 124 129 133 136 140 144 146 146 145 144 141 137 137 139 144 150 149 148 145 138 137 142 151 164 183 200 209 213 215 218 221 225 227 227 226 224 220 217 215 213 213
293 295 300 306 310 313 315 316 316 316 321 340 355 1 5 24 100 110 113 117 114 111 111 113 111 113 119 128 134 139 143 147 149 152 154 155 153 151 150 149 150 153 157 162 160 157 155 151 158 168 179 191 202 210 214 215 215 216 219 224 225 225 224 222 214 210 209 209 212
281 285 291 297 304 310 317 318 322 336 0 24 23 18 15 24 83 110 116 114 108 112 117 122 119 122 128 138 144 149 154 158 159 160 162 163 162 161 161 163 163 163 164 169 170 169 168 171 182 193 202 209 212 215 217 216 215 216 220 226 224 223 222 220 211 206 205 207 212
271 275 279 284 295 306 314 320 341 9 33 47 40 32 27 42 119 124 119 112 114 121 128 128 127 132 140 151 157 162 166 170 171 170 168 168 171 172 173 172 171 171 173 178 180 181 183 189 197 205 212 217 219 221 221 218 217 220 224 230 226 225 225 227 219 211 204 201 210
267 272 277 281 292 302 312 328 7 39 57 77 87 105 171 197 183 150 134 127 130 136 142 139 136 141 150 162 168 173 177 181 182 179 176 175 179 182 184 183 183 184 187 191 192 192 194 199 204 210 217 223 228 230 227 222 221 224 228 232 231 230 230 234 229 218 204 199 212
267 268 271 277 286 292 293 75 122 132 144 154 184 197 202 205 209 182 156 143 144 147 151 151 150 155 162 170 175 180 184 186 187 187 185 186 189 192 194 196 197 199 201 204 204 204 207 213 217 223 230 239 244 243 237 227 224 225 227 229 230 231 233 235 229 219 209 210 219
270 268 268 276 276 259 208 190 201 199 195 194 212 218 218 211 213 197 173 155 155 155 157 159 166 174 179 181 182 184 187 189 191 192 194 196 198 201 203 206 208 211 215 220 219 219 220 227 232 235 240 245 250 250 246 237 228 225 224 225 227 231 234 236 230 223 217 220 228
273 271 271 274 259 232 213 208 211 211 213 220 232 236 230 218 211 196 179 166 163 163 167 172 180 188 194 197 193 191 191 195 197 199 201 205 208 210 212 215 217 219 223 228 232 233 232 232 233 236 239 243 248 250 249 244 235 229 227 226 227 230 234 236 233 230 227 227 234
279 275 270 261 244 227 218 215 215 218 223 233 239 238 230 214 203 193 185 177 171 174 181 188 190 194 199 207 206 202 199 203 206 208 211 216 220 222 224 227 226 226 227 230 237 242 244 243 240 238 237 239 243 246 247 245 239 235 231 230 229 230 232 234 233 232 232 232 235
286 280 270 255 238 227 218 212 210 212 218 224 228 230 225 208 195 194 194 189 182 183 187 193 195 197 201 208 212 211 210 212 216 221 225 231 235 238 239 240 238 236 235 236 242 247 250 252 250 245 240 238 240 242 242 242 239 236 233 232 231 231 232 233 232 231 232 233 236
289 283 272 255 239 229 219 210 207 208 211 214 216 217 213 202 191 189 193 202 199 192 188 188 193 201 208 212 214 215 214 211 222 236 249 254 256 256 255 254 253 251 249 247 249 251 254 257 256 253 247 243 242 240 238 234 234 233 233 232 233 233 234 234 233 232 232 233 237
287 282 272 257 244 233 223 213 207 205 204 202 203 204 204 201 193 189 190 200 204 197 186 178 185 198 212 216 210 205 196 176 199 239 259 264 267 266 264 265 266 266 264 259 257 257 258 260 259 256 250 245 244 241 238 233 233 234 235 235 236 236 237 237 237 236 235 235 237
285 280 272 261 249 238 230 222 210 201 196 195 198 201 203 206 205 201 197 198 195 189 180 175 182 191 200 202 194 189 183 169 182 223 252 264 268 268 267 268 272 275 274 269 264 262 261 261 259 255 249 244 244 244 244 243 245 246 247 246 245 244 243 243 242 241 240 239 239
285 280 272 261 248 239 233 226 213 201 195 195 199 203 208 215 221 222 218 212 199 192 186 181 182 184 184 177 170 171 176 163 195 237 257 272 275 274 274 271 275 279 280 278 274 271 268 264 260 254 248 248 251 253 252 253 256 259 260 259 258 256 254 251 249 246 245 243 242
289 284 274 259 245 237 231 226 216 209 206 210 220 232 248 265 294 320 328 307 270 246 222 184 161 147 133 118 106 68 12 353 345 341 335 317 299 295 293 290 282 280 280 280 277 275 274 275 275 271 263 259 263 264 263 260 258 259 262 264 265 265 263 260 255 251 249 248 246
295 290 280 263 248 239 237 237 243 266 293 311 325 333 340 347 354 352 342 326 319 320 331 5 49 71 80 82 81 71 36 2 349 343 338 329 309 299 295 292 281 277 278 280 286 290 293 291 295 297 293 282 276 270 265 259 253 252 254 259 265 268 269 268 263 258 255 254 252
303 296 287 274 264 266 290 329 341 344 347 353 359 0 0 0 357 348 336 326 327 332 340 352 11 36 60 72 75 82 86 87 16 327 317 313 307 303 303 306 301 300 300 303 310 314 316 313 310 305 295 290 282 275 267 258 249 246 248 252 259 266 273 277 275 270 264 260 257
311 307 303 303 321 350 4 6 0 355 352 359 6 6 0 350 340 330 322 319 323 328 333 338 346 0 24 53 59 66 77 120 176 251 289 304 314 320 324 326 327 327 327 326 326 326 325 323 319 313 297 278 273 270 269 264 253 247 246 249 253 259 267 275 279 279 276 270 263
324 325 330 342 359 11 16 16 9 1 356 355 356 352 345 337 331 325 319 314 314 317 323 329 337 346 5 34 42 38 16 276 253 277 303 322 329 331 332 334 333 331 328 328 329 329 328 326 320 314 304 277 259 254 257 261 259 255 250 248 249 251 255 263 270 276 279 280 273
342 348 354 1 9 15 19 19 11 3 356 351 350 348 345 342 337 331 324 318 319 324 331 336 342 353 7 19 14 356 327 316 322 331 338 342 340 338 335 331 328 325 326 329 330 328 324 319 313 308 303 289 266 242 240 247 253 254 251 248 247 247 249 252 260 267 272 276 276
3 12 20 24 24 25 25 23 15 6 357 353 354 355 354 350 345 341 338 337 339 342 342 342 350 0 4 358 345 336 333 333 340 345 349 349 344 338 332 328 325 323 324 326 324 320 315 309 306 302 299 297 279 226 206 219 230 238 244 245 245 246 248 251 257 261 265 269 273
26 35 40 41 38 35 32 28 22 16 12 12 14 14 11 4 358 354 351 349 347 344 341 342 348 347 341 328 328 333 338 341 347 353 354 351 343 337 332 329 325 319 316 317 314 310 306 302 300 297 296 298 274 188 176 193 206 223 237 244 245 246 248 252 257 260 264 268 273
40 45 48 48 45 41 37 31 28 26 26 28 27 24 19 12 5 360 355 351 345 339 336 339 335 328 321 320 329 338 343 346 351 355 357 353 343 332 324 317 310 305 304 307 305 303 300 297 296 295 296 300 238 176 181 196 208 221 234 244 248 250 252 256 258 261 264 268 272
44 48 50 49 47 43 38 33 32 31 31 32 30 26 20 12 5 359 355 351 345 343 341 342 338 334 333 336 342 346 349 351 352 352 351 347 332 318 307 300 296 295 297 300 299 297 295 293 294 296 299 303 237 192 196 207 217 228 238 246 250 252 254 258 263 265 266 268 269
45 48 50 50 46 41 36 33 31 31 31 31 29 23 16 7 1 359 357 356 354 352 351 350 347 344 342 342 345 346 345 344 341 338 335 331 319 306 298 294 291 292 295 298 296 295 293 292 295 297 299 301 267 215 207 217 228 239 247 252 254 255 256 257 262 265 267 267 267
44 46 48 48 43 38 32 28 27 27 28 26 22 17 10 3 0 359 0 358 355 354 353 351 345 340 337 339 342 340 336 332 330 328 326 325 318 307 298 292 289 292 296 296 294 293 292 293 296 299 301 303 283 236 224 236 248 256 260 262 264 263 261 260 260 261 263 263 265
42 43 42 40 36 31 26 21 20 20 19 15 8 2 0 0 1 1 358 347 340 339 339 336 331 332 334 338 342 338 332 328 324 323 323 325 321 310 299 291 289 293 296 295 293 292 292 295 299 302 303 304 289 256 244 254 263 267 268 270 272 271 268 265 262 261 260 260 263
38 38 35 30 25 21 16 10 7 5 2 356 348 346 348 353 357 356 344 321 322 329 331 327 329 334 338 338 338 336 331 327 322 320 320 323 321 310 299 293 293 294 296 296 296 295 296 299 302 304 305 304 289 268 262 264 268 271 272 273 274 274 271 267 264 262 262 264 266
26 29 27 20 13 6 359 353 349 346 342 337 334 336 340 341 335 321 298 293 316 324 325 322 325 328 330 332 329 324 322 325 321 318 317 320 316 305 297 294 293 293 295 298 299 300 300 302 304 306 307 302 292 281 276 274 274 275 276 276 275 274 272 270 268 269 269 270 272
357 4 5 1 353 345 338 334 333 331 329 327 326 328 327 320 304 289 280 287 317 322 321 319 319 322 327 335 328 322 319 323 321 315 312 313 306 294 288 290 291 292 295 300 302 303 303 303 305 307 308 300 292 286 282 282 282 281 280 280 280 279 278 277 277 278 278 277 279
329 334 336 337 332 328 325 325 324 323 323 323 323 322 319 309 298 294 297 320 334 329 323 317 315 321 332 344 335 327 321 323 321 312 302 298 289 281 276 277 284 289 295 302 304 304 304 304 305 307 308 302 295 287 283 283 284 284 285 285 287 286 284 281 282 283 283 280 284
315 318 319 320 320 321 322 321 321 320 321 323 323 323 319 312 308 316 333 354 354 343 327 313 311 319 331 343 333 323 318 319 318 307 289 284 282 284 282 270 279 286 293 301 305 306 305 305 306 308 309 304 299 290 284 284 288 290 291 291 292 292 290 288 286 285 282 278 279
308 310 312 315 318 321 322 322 321 323 326 332 331 328 323 321 324 334 344 352 346 338 324 311 310 316 324 333 325 317 314 313 311 303 291 284 284 289 289 274 280 286 292 299 304 306 307 307 307 309 310 307 304 298 291 293 296 296 295 294 293 294 296 296 293 286 278 271 269